Flag for Russia Weather past 2 weeks in Khabarovsk, Russia

Now
52 °F

Clear.


Feels Like: 51 °F
Forecast: 51 / 73 °F
Wind: 3 mph from Southeast

Location: Habarovsk

Current Time: Jul 1, 2015 at 5:56:26 AM

Latest Report: Jul 1, 2015 at 5:30 AM


Visibility: 10 mi

Pressure: 29.45 "Hg

Humidity: 100%

Dew point: 52 °F

Location of KhabarovskLocation

Historic Weather in Khabarovsk — Graph

°F

Khabarovsk temperature yesterday

Maximum temperature yesterday: 70 °F (at 5:00 PM)
Minimum temperature yesterday: 52 °F (at 4:00 AM)
Average temperature yesterday: 60 °F

Past Weeks' High & Low Weather Summary

 TemperatureHumidityPressure
High88 °F (Jun 16, 2:00 PM)100% (Jun 16, 5:30 AM)29.95 "Hg (Jun 16, 5:30 AM)
Low50 °F (Jun 27, 4:00 AM)28% (Jun 19, 6:00 PM)29.39 "Hg (Jun 29, 4:30 PM)
Average65 °F81%29.71 "Hg
* Reported Jun 16 4:00 AM — Jul 1 4:00 AM, Khabarovsk, Weather by CustomWeather, © 2015

Note: Actual official high and low records may vary slightly from our data, if they occured in-between our weather recording intervals... More about our weather records

Advertising

Khabarovsk weather history for previous 24 hours

 ConditionsComfort  
Time TempWeatherWind HumidityBarometerVisibility
4:00 AM
Wed, Jul 1
52 °FClear.6 mph100%29.42 "Hg10 mi
3:00 AM52 °FClear.3 mph100%29.42 "Hg10 mi
1:00 AM54 °FClear.6 mph94%29.45 "Hg10 mi
12:30 AM54 °FClear.8 mph94%29.45 "Hg10 mi
11:30 PM
Tue, Jun 30
54 °FPassing clouds.6 mph100%29.45 "HgN/A
11:00 PM55 °FPassing clouds.6 mph94%29.45 "HgN/A
10:30 PM57 °FPassing clouds.6 mph94%29.45 "HgN/A
10:00 PM57 °FScattered clouds.6 mph88%29.45 "HgN/A
9:30 PM57 °FScattered clouds.8 mph88%29.42 "HgN/A
9:00 PM57 °FSprinkles. Partly sunny.8 mph94%29.45 "Hg5 mi
8:30 PM61 °FSprinkles. Partly sunny.8 mph83%29.45 "Hg6 mi
8:00 PM64 °FPartly sunny.8 mph60%29.42 "HgN/A
7:30 PM66 °FScattered clouds.3 mph60%29.39 "HgN/A
7:00 PM66 °FPassing clouds.3 mph52%29.39 "HgN/A
6:30 PM66 °FScattered clouds.8 mph52%29.39 "HgN/A
6:00 PM63 °FScattered clouds.17 mph64%29.39 "HgN/A
5:30 PM64 °FScattered clouds.24 mph56%29.39 "HgN/A
5:00 PM70 °FScattered clouds.10 mph53%29.39 "HgN/A
4:30 PM68 °FScattered clouds.13 mph53%29.39 "HgN/A
4:00 PM66 °FScattered clouds.13 mph60%29.39 "HgN/A
3:30 PM61 °FSprinkles. Broken clouds.20 mph63%29.39 "Hg6 mi
3:00 PM66 °FScattered clouds.15 mph64%29.39 "HgN/A
2:30 PM68 °FScattered clouds.15 mph56%29.39 "HgN/A
1:30 PM68 °FScattered clouds.22 mph56%29.39 "HgN/A
1:00 PM66 °FPassing clouds.22 mph60%29.39 "HgN/A
12:30 PM68 °FPassing clouds.20 mph60%29.39 "HgN/A
12:00 PM64 °FPassing clouds.15 mph64%29.39 "HgN/A
11:30 AM66 °FPassing clouds.26 mph60%29.42 "HgN/A
11:00 AM64 °FPassing clouds.15 mph64%29.42 "HgN/A
10:30 AM63 °FPassing clouds.17 mph64%29.42 "HgN/A
10:00 AM61 °FSunny.20 mph72%29.42 "Hg10 mi
9:30 AM61 °FSunny.15 mph72%29.42 "Hg10 mi
9:00 AM59 °FSunny.17 mph72%29.45 "Hg10 mi
8:30 AM59 °FSunny.17 mph72%29.45 "Hg10 mi
8:00 AM57 °FSunny.15 mph77%29.42 "Hg10 mi
7:30 AM55 °FSunny.13 mph82%29.42 "Hg10 mi
7:00 AM54 °FSunny.13 mph88%29.42 "Hg10 mi
6:30 AM52 °FPassing clouds.13 mph88%29.42 "HgN/A
6:00 AM52 °FPassing clouds.13 mph88%29.42 "HgN/A
5:30 AM52 °FPassing clouds.17 mph88%29.42 "HgN/A
5:00 AM52 °FPassing clouds.20 mph88%29.42 "HgN/A
Weather by CustomWeather, © 2015

See weather overviewHow to use our weather pages